Other Public Products
Issued by NWS Grand Forks, ND

Home | Current Version | Previous Version | Graphics & Text | Print | Product List | Glossary On
Versions: 1 2 3 4 5 6 7 8 9 10 11 12 13 14 15 16 17 18 19 20 21 22 23 24 25 26 27 28 29 30 31 32 33 34 35 36 37 38 39 40 41 42 43 44 45 46 47 48 49 50
000
FPUS83 KFGF 060810
OPUFGF
PRAIRIE TO PINES WEATHER ROUNDUP
NATIONAL WEATHER SERVICE EASTERN NORTH DAKOTA/GRAND FORKS ND
300 AM CDT MON JUL 06 2015

 **SATELLITE DATA USED TO AUGMENT SKY COVER AT AUTOMATED STATIONS**
 *****  WEATHER ACROSS EASTERN NORTH DAKOTA  *****

CITY           SKY/WX    TMP DP  RH WIND       PRES   REMARKS
GRAND FORKS    CLOUDY    61  58  90 N16       29.94R FOG
GRAND FORKS AF PTCLDY    60  56  86 N13G22    29.96R HAZE
GRAND CITY NWS   N/A     59 N/A N/A N3          N/A
BUXTON         NOT AVBL
DEVILS LAKE    PTCLDY    57  52  82 N10       29.99R
FARGO          CLOUDY    65  59  81 N10       29.91R HAZE
WAHPETON ARPT  CLOUDY    64  61  88 N13G18    29.87S
$$

 *****  WEATHER ACROSS CENTRAL AND WESTERN NORTH DAKOTA  *****

CITY           SKY/WX    TMP DP  RH WIND       PRES   REMARKS
JAMESTOWN      MOCLDY    63  57  81 N12       29.96R HAZE
BISMARCK       MOCLDY    63  54  72 NW12      30.02R HAZE
MINOT          CLOUDY    54  50  86 NW8       30.05R
MINOT AFB      PTCLDY    57  57  99 NW8       30.05R
GARRISON         N/A     56  53  90 N8        30.05R
WILLISTON      MOCLDY    60  51  72 N5        30.11R
DICKINSON      CLOUDY    58  52  80 NW5       30.08R
HETTINGER      CLOUDY    58  51  78 N6        30.10R
$$

 *****  OTHER OBSERVATIONS NORTHEAST NORTH DAKOTA  *****

CITY           SKY/WX    TMP DP  RH WIND       PRES   REMARKS
WALHALLA       FAIR      57  57 100 MISG      30.02R
LANGDON        CLOUDY    57  55  94 N8        30.01R FOG
CAVALIER       CLOUDY    59  54  82 NE13G20   30.00R HAZE
GRAFTON        FAIR      59  59 100 N14G22    29.98R FOG
CANDO          FAIR      54  52  94 N9        30.02R FOG
FORT TOTTEN      N/A     60  56  87 NE6       29.95S
ROLLA          CLOUDY    52  52 100 N9        30.05R
RUGBY          NOT AVBL
 ***** THE ABOVE OBSERVATIONS ARE NON NWS ARE NOT QUALITY
        CONTROLLED AND MAY MIS-REPORT RAIN FOR SNOW...
$$

 *****  OTHER OBSERVATIONS SOUTHEAST NORTH DAKOTA *****

CITY           SKY/WX    TMP DP  RH WIND       PRES   REMARKS
COOPERSTOWN    NOT AVBL
VALLEY CITY    FAIR      64  64 100 N9        29.96R FOG
OAKES            N/A     66  66 100 N12       29.93R FOG
GWINNER        FAIR      66  61  82 N10       29.92R
SHEYENNE NWR     N/A     67  57  71 N7        29.95
BUFFALO        NOT AVBL
WYNDMERE         N/A     66  59  77 N9          N/A
 ***** THE ABOVE OBSERVATIONS ARE NON NWS ARE NOT QUALITY
       CONTROLLED AND MAY MIS-REPORT RAIN FOR SNOW...
$$

  *****  WEATHER ACROSS NORTHERN MINNESOTA  *****

CITY           SKY/WX    TMP DP  RH WIND       PRES   REMARKS
FLAG ISLAND    MOCLDY    59  52  77 N20       29.93R
WARROAD        MOCLDY    57  54  88 NW8       29.95R FOG
ROSEAU         PTCLDY    57  52  82 N8        29.96R
HALLOCK        CLOUDY    59  54  82 N12G17    29.97R
THF RVR FALLS  MOCLDY    63  57  82 N13       29.94R
HALSTAD        NOT AVBL
FOSSTON          N/A     61  59  94 CALM      29.93R FOG
BAUDETTE       CLOUDY    64  59  83 N8        29.90R HAZE
WASKISH        CLOUDY    61  59  94 N3        29.91R FOG
CROOKSTON      PTCLDY    63  61  94 N8        29.94R FOG
$$
  *****  WEATHER ACROSS CENTRAL AND WEST MINNESOTA  *****

CITY           SKY/WX    TMP DP  RH WIND       PRES   REMARKS
BEMIDJI        CLOUDY    62  61  95 N5        29.90F FOG
PARK RAPIDS    CLOUDY    67  61  81 N10       29.88S
WADENA         CLOUDY    64  63  94 N8        29.87R
DETROIT LAKES  CLOUDY    66  61  82 NE8       29.91R HAZE
MOORHEAD       CLOUDY    64  61  88 N10       29.91R FOG
FERGUS FALLS   CLOUDY    70  63  78 NE10      29.85S
ELBOW LAKE     LGT RAIN  69  64  85 N12G17    29.84S
MORRIS MN      LGT RAIN  70  66  88 N8        29.82S
STAPLES        CLOUDY    66  64  94 N7        29.85S
WHEATON        DRIZZLE   64  63  94 N10       29.86F
$$
  *****  WEATHER ELSEWHERE ACROSS MINNESOTA  *****

CITY           SKY/WX    TMP DP  RH WIND       PRES   REMARKS
DULUTH         CLOUDY    66  64  93 CALM      29.83S FOG
INTRNTL FALLS  PTCLDY    54  54 100 CALM      29.89R FOG
ELY            MOCLDY    61  61 100 CALM      29.86S
CLOQUET        FOG       64  63  94 NW5       29.83S VSB 1/2
BRAINERD       CLOUDY    68  66  93 NE9       29.84F
HIBBING        MOCLDY    63  60  90 N6        29.87S
ALEXANDRIA     CLOUDY    68  65  90 NE12G21   29.84S
SAINT CLOUD    CLOUDY    69  68  96 N5        29.79F
MINNEAPOLIS    TSTM      72  70  93 N14       29.79R FOG
$$

  *****  WEATHER ACROSS SOUTH DAKOTA  *****

CITY           SKY/WX    TMP DP  RH WIND       PRES   REMARKS
SIOUX FALLS    RAIN      71  70  96 N8        29.86R FOG
BROOKINGS      CLOUDY    68  64  88 NW9       29.88R
WATERTOWN      LGT RAIN  67  64  90 N12       29.88R
HURON          RAIN      67  67 100 N7        29.89R FOG
SISSETON         N/A     68  65  90 N17       29.86R
ABERDEEN       CLOUDY    70  65  84 N10       29.92R HAZE
MITCHELL       CLOUDY    70  69  97 NE8       29.88R
PIERRE         LGT RAIN  64  62  93 NW9       29.97R FOG
MOBRIDGE       CLOUDY    67  65  93 N7        29.98R FOG
RAPID CITY     CLOUDY    61  56  83 N12       30.11R HAZE
$$

  *****  SOME WEATHER IN NEARBY STATES *****

CITY           SKY/WX    TMP DP  RH WIND       PRES   REMARKS
GLASGOW MT     CLOUDY    57  54  89 W7        30.16S
GREAT FALLS MT CLOUDY    50  49  96 SW3       30.27S
CHEYENNE WY    LGT RAIN  58  57  97 N12       30.19S FOG
SCOTTSBLUFF NE LGT RAIN  62  60  93 N9        30.10R
OMAHA NE       CLOUDY    80  75  84 S7        29.79S
DES MOINES IA  CLOUDY    78  71  79 S15       29.82F THUNDER
DAVENPORT IA   CLEAR     70  65  84 S10       29.97R
CHICAGO IL     CLEAR     69  62  78 CALM      30.02R
EAU CLAIRE WI  CLOUDY    73  66  78 CALM      29.85R
LA CROSSE WI   CLOUDY    74  67  78 S15G22    29.84F
$$

  *****  SOME NATIONAL WEATHER *****

CITY           SKY/WX    TMP DP  RH WIND       PRES   REMARKS
LA GUARDIA NY  MOCLDY    73  66  78 S3        30.13S
RALEIGH NC     MOCLDY    71  69  93 SE5       30.10S
ATLANTA GA     MOCLDY    71  68  90 SW5       30.10F
NEW ORLEANS LA MOCLDY    75  70  84 S3        30.08F
OKLAHOMA CITY  MOCLDY    76  71  85 S8        29.93F
ALBUQUERQUE NM CLOUDY    68  59  73 NW5       30.16S
SALT LAKE CITY CLEAR     71  62  73 W7        30.04R
LOS ANGELES CA CLOUDY    64  59  83 W5        30.02S
BOISE ID       MOCLDY    71  55  56 SE5       29.99R
SEATTLE WA     CLEAR     66  55  67 S6        29.93R
$$

*** WEATHER ACROSS MANITOBA...SASKATCHEWAN AND ONTARIO ***
                ***ONTARIO***

CITY           SKY/WX    TMP DP  RH WIND       PRES   REMARKS
GERALDTON      LGT RAIN  64  63  94 W6        29.76R FOG
THUNDER BAY    CLOUDY    61  61 100 SW2       29.77F
SIOUX LOOKOUT  NOT AVBL
TORONTO        PTCLDY    64  61  88 SE2       30.09S
BIG TROUT LK   MOCLDY    46  41  81 W16G22    29.69R
PICKLE LAKE    NOT AVBL
DRYDEN         CLOUDY    55  54  94 NW7       29.87S FOG
KENORA         PTCLDY    54  48  82 N8        29.92R SMOKE
$$
                *** MANITOBA***

CITY           SKY/WX    TMP DP  RH WIND       PRES   REMARKS
BRANDON        CLEAR     48  45  87 NW7       30.05S SMOKE
DAUPHIN        CLOUDY    52  45  76 NW6       30.06R
ISLAND LAKE    CLOUDY    46  43  87 NW15G24   29.88R
PILOT MOUND      N/A     52  48  87 N5          N/A
THE PAS        CLEAR     41  39  93 SE3       30.10R
THOMPSON       MOCLDY    43  39  87 NW6       29.99R
WINNIPEG       CLEAR     50  46  87 N9        30.00R
LYNN LAKE      CLEAR     39  37  93 SW8       30.04S
CHURCHILL      MOCLDY    43  39  87 N20       29.85R
$$
                ***SASKATCHEWAN***

CITY           SKY/WX    TMP DP  RH WIND       PRES   REMARKS
ESTEVAN        CLOUDY    54  52  94 N7        30.10R
KINDERSLEY     MOCLDY    50  48  93 NW5       30.18S
LLOYDMINSTER   CLOUDY    46  43  87 W9        30.16S
PRINCE ALBERT  CLOUDY    46  45  93 W3        30.13R
REGINA         MOCLDY    52  48  87 N8        30.13R
YORKTON        CLEAR     46  43  87 W7        30.11R



USA.gov is the U.S. government's official web portal to all federal, state and local government web resources and services.